Flag for Switzerland Weather past 2 weeks in La-Chaux-de-Fonds, Neuchâtel, Switzerland

28 °F

Ice fog.

Feels Like: 28 °F
Forecast: 15 / 27 °F
Wind: 2 mph from North

Location: Les Eplatures

Current Time: Nov 26, 2015 at 8:17:44 AM

Latest Report: Nov 26, 2015 at 7:20 AM

Visibility: 0 mi

Pressure: 29.83 "Hg (26.30 "Hg at 1000m altitude)

Humidity: 100%

Dew point: 28 °F

Location of La-Chaux-de-FondsLocation

Historic Weather in La-Chaux-de-Fonds — Graph


La-Chaux-de-Fonds temperature yesterday

Maximum temperature yesterday: 34 °F (at 10:20 AM)
Minimum temperature yesterday: 28 °F (at 12:20 AM)
Average temperature yesterday: 32 °F

Past Weeks' High & Low Weather Summary

High61 °F (Nov 12, 1:50 PM)100% (Nov 18, 1:20 AM)30.48 "Hg (Nov 18, 1:20 AM)
Low9 °F (Nov 24, 1:50 AM)23% (Nov 11, 12:50 PM)29.42 "Hg (Nov 21, 12:20 PM)
Average39 °F83%30.11 "Hg
* Reported Nov 11 6:20 AM — Nov 26 6:50 AM, La-Chaux-de-Fonds, Weather by CustomWeather, © 2015

Note: Actual official high and low records may vary slightly from our data, if they occured in-between our weather recording intervals... More about our weather records


La-Chaux-de-Fonds weather history for previous 24 hours

Time TempWeatherWind HumidityBarometerVisibility
6:50 AM
Thu, Nov 26
28 °FIce fog.2 mph100%29.83 "Hg0 mi
6:20 AM30 °FLight snow. Low clouds.2 mph93%29.83 "Hg2 mi
5:50 AM28 °FLight snow. Low clouds.3 mph100%29.80 "HgN/A
5:20 AM28 °FLight snow. Low clouds.2 mph100%29.80 "Hg1 mi
4:50 AM28 °FLight snow. Low clouds.3 mph100%29.80 "Hg2 mi
4:20 AM28 °FSnow. Passing clouds.3 mph100%29.80 "Hg1 mi
3:50 AM28 °FSnow. Passing clouds.2 mph100%29.77 "Hg1 mi
3:20 AM30 °FSnow showers. Ice fog.3 mph93%29.77 "Hg1 mi
2:50 AM28 °FIce fog.2 mph100%29.77 "Hg1 mi
2:20 AM28 °FLow clouds.2 mph100%29.77 "HgN/A
1:20 AM30 °FLight snow. Passing clouds.3 mph93%29.74 "Hg2 mi
12:50 AM30 °FSnow. Low clouds.2 mph93%29.74 "Hg1 mi
12:20 AM30 °FLight snow. Low clouds.2 mph93%29.71 "Hg2 mi
11:50 PM
Wed, Nov 25
30 °FLight snow. Low clouds.2 mph93%29.71 "Hg2 mi
11:20 PM30 °FLight mixture of precip. Ice fog.2 mph93%29.71 "Hg2 mi
10:50 PM30 °FLow clouds.5 mph100%29.71 "HgN/A
10:20 PM32 °FLight snow. Passing clouds.1 mph93%29.71 "HgN/A
9:50 PM32 °FLight snow. Passing clouds.3 mph93%29.71 "Hg1 mi
9:20 PM32 °FSnow. Dense fog.2 mph93%29.71 "Hg1 mi
8:50 PM32 °FSnow flurries. Partly cloudy.2 mph100%29.71 "Hg1 mi
8:20 PM32 °FSnow showers. Low clouds.2 mph100%29.71 "Hg1 mi
7:50 PM32 °FSnow flurries. Low clouds.3 mph100%29.71 "HgN/A
7:20 PM32 °FSnow flurries. Low clouds.2 mph100%29.71 "HgN/A
6:50 PM32 °FLight snow. Partly cloudy.2 mph100%29.71 "HgN/A
6:20 PM32 °FSnow. Partly cloudy.2 mph100%29.71 "Hg1 mi
5:50 PM32 °FSnow. Passing clouds.2 mph100%29.71 "Hg1 mi
5:20 PM32 °FIce fog.2 mph100%29.71 "Hg2 mi
4:50 PM32 °FLow clouds.1 mph100%29.71 "Hg5 mi
4:20 PM32 °FPartly sunny.5 mph100%29.74 "Hg5 mi
3:50 PM32 °FSnow flurries. Partly sunny.3 mph100%29.74 "Hg1 mi
3:20 PM32 °FIce fog.3 mph100%29.74 "Hg0 mi
2:50 PM32 °FIce fog.3 mph100%29.74 "Hg1 mi
2:20 PM32 °FLow clouds.3 mph100%29.74 "Hg4 mi
1:50 PM32 °FPartly sunny.5 mph93%29.74 "HgN/A
1:20 PM32 °FSprinkles. Ice fog.5 mph93%29.74 "Hg2 mi
12:50 PM34 °FLight snow. Broken clouds.6 mph93%29.74 "Hg4 mi
12:20 PM32 °FSnow. Dense fog.5 mph100%29.77 "Hg1 mi
11:50 AM32 °FSnow. Dense fog.7 mph100%29.77 "Hg1 mi
11:20 AM34 °FSnow showers. Dense fog.6 mph93%29.80 "Hg1 mi
10:50 AM34 °FSnow flurries. Mostly cloudy.6 mph93%29.80 "Hg2 mi
10:20 AM34 °FSnow flurries. Mostly cloudy.5 mph93%29.80 "HgN/A
9:50 AM32 °FLight snow. More clouds than sun.6 mph100%29.80 "Hg2 mi
9:20 AM32 °FLight snow. Dense fog.5 mph100%29.80 "Hg2 mi
8:50 AM32 °FLight snow. Low clouds.6 mph100%29.83 "Hg2 mi
8:20 AM32 °FLight snow. Low clouds.6 mph100%29.83 "Hg2 mi
Weather by CustomWeather, © 2015

See weather overviewHow to use our weather pages